Regional Weather Roundup
Issued by NWS Sterling, VA

Home | Current Version | Previous Version | Graphics & Text | Print | Product List | Glossary On
Versions: 1 2 3 4 5 6 7 8 9 10 11 12 13 14 15 16 17 18 19 20 21 22 23 24 25 26 27 28 29 30 31 32 33 34 35 36 37 38 39 40 41 42 43 44 45 46 47 48 49 50
003
ASUS41 KLWX 281310
RWRLWX

REGIONAL WEATHER ROUNDUP
NATIONAL WEATHER SERVICE BALTIMORE MD/WASHINGTON DC
900 AM EDT THU APR 28 2016

Note: "FAIR" indicates few or no clouds below 12,000 feet
with no significant weather and/or obstructions to visibility.
 TC=TEMPERATURE CELSIUS

 * =Non NWS site. Station does not report precipitation (e.g. rain,
    snow, etc.), thunder, or fog.

DCZ001-MDZ009-015-VAZ040>042-051-053>054-281400-
WASHINGTON METRO

CITY           SKY/WX    TMP DP  RH WIND       PRES   REMARKS
WASHINGTON NAT LGT RAIN  55  50  83 NE10      29.99R
DULLES         LGT RAIN  53  51  93 E6        29.98S FOG
ANDREWS AFB    DRIZZLE   53  50  87 E10       29.97S
FT BELVOIR     LGT RAIN  54  51  89 CALM      29.99R FOG
QUANTICO       HVY RAIN  55  52  89 E7        30.00R FOG
COLLEGE PARK*  CLOUDY    52  50  93 CALM      29.99R
LEESBURG*      LGT RAIN  54  54 100 NE3       29.99S
MANASSAS*      LGT RAIN  54  54 100 MISG      29.98R FOG
GAITHERSBURG*  CLOUDY    52  46  82 CALM      30.02S

$$

MDZ006>007-011-014-281400-
BALTIMORE METRO

CITY           SKY/WX    TMP DP  RH WIND       PRES   REMARKS
BWI AIRPORT    CLOUDY    55  48  77 NE12      29.99S HAZE
MD SCIENCE CTR   N/A     55  47  74 MISG      30.01S
MARTIN STATE   CLOUDY    55  52  88 NE6       30.02S FOG
ANNAPOLIS      CLOUDY    54  48  80 NE7       29.99S
FORT MEADE*    CLOUDY    52  50  93 E5        30.01S

$$

MDZ012-015-019>023-281400-
MARYLAND EASTERN SHORE

CITY           SKY/WX    TMP DP  RH WIND       PRES   REMARKS
OCEAN CITY     LGT RAIN  51  48  89 NE6       30.01R
SALISBURY      LGT RAIN  51  49  92 E5        29.99S FOG
EASTON*        CLOUDY   N/A N/A N/A E7        30.02F

$$

MDZ017>025-281400-
SOUTHERN MARYLAND

CITY           SKY/WX    TMP DP  RH WIND       PRES   REMARKS
PATUXENT RIVER LGT RAIN  53  50  89 E10       29.98R FOG
ST INIGOES     LGT RAIN  53  52  96 NE7       29.97R FOG
LEONARDTOWN*   CLOUDY    52  50  93 E7        29.99S

$$

MDZ003>005-281400-
NORTH CENTRAL MARYLAND

CITY           SKY/WX    TMP DP  RH WIND       PRES   REMARKS
FREDERICK*     CLOUDY    54  52  94 NE6       30.02S FOG
HAGERSTOWN APT CLOUDY    53  49  86 NE9       29.98S FOG
WESTMINSTER*   CLOUDY    52  50  93 E7        30.00S FOG

$$

MDZ501>502-281400-
WESTERN MARYLAND

CITY           SKY/WX    TMP DP  RH WIND       PRES   REMARKS
OAKLAND*       CLOUDY    46  46 100 SE15      29.92S FOG
CUMBERLAND*    CLOUDY    52  52 100 CALM      30.00R

$$

VAZ025>031-281400-
SHENANDOAH VALLEY

CITY           SKY/WX    TMP DP  RH WIND       PRES   REMARKS
WINCHESTER*    RAIN      54  52  94 CALM      29.96S
FRONT ROYAL*   CLOUDY    52  52 100 NE6       29.93S
LURAY*         RAIN      54  54 100 E5        29.94R VSB 3/4
NEW MARKET*    CLOUDY    54  53  97 E5        29.95R
STAUNTON*      RAIN      58  58 100 E3        29.95S
WAYNESBORO*    CLOUDY    58  56  96 MISG      29.94S

$$

WVZ021-048>050-054>055-281400-
EASTERN WEST VIRGINIA PANHANDLE

CITY           SKY/WX    TMP DP  RH WIND       PRES   REMARKS
MARTINSBURG    LGT RAIN  51  50  96 E8        29.97R VSB 3/4
PETERSBURG*    LGT RAIN  55  53  94 CALM      29.95R

$$

VAZ036>039-050-281400-
CENTRAL FOOTHILLS

CITY           SKY/WX    TMP DP  RH WIND       PRES   REMARKS
CHARLOTTESVILL CLOUDY    57  54  89 NE3       29.95S FOG
CULPEPER*      HVY RAIN  54  54  99 CALM      29.98S
ORANGE*        RAIN      55  55 100 CALM      29.99R
GORDONSVILLE*  CLOUDY    55  55  99 CALM      29.96R
WARRENTON*     HVY RAIN  54  49  85 NE5       29.95F

$$

VAZ055>057-281400-
NORTH AND CENTRAL PIEDMONT

CITY           SKY/WX    TMP DP  RH WIND       PRES   REMARKS
FREDERICKSBRG* LGT RAIN  55  55 100 E5        29.97S
STAFFORD*      HVY RAIN  53  51  95 E7        30.01F

$$

NCZ024-NYZ072-PAZ021-071-VAZ022-071-281400-
OTHER REGIONAL OBSERVATIONS

CITY           SKY/WX    TMP DP  RH WIND       PRES   REMARKS
NEW YORK CITY  PTSUNNY   50  23  34 VRB6      30.08S
PHILADELPHIA   CLOUDY    54  39  57 NE10      30.04R
PITTSBURGH     LGT RAIN  52  40  63 NE5       29.88R
ROANOKE        CLOUDY    60  59  96 SE7       29.94S
RICHMOND       CLOUDY    56  55  97 E7        29.96S
RALEIGH        PTSUNNY   69  63  81 SW7       29.92R

$$

ANZ530>537-281400-
MARINE OBSERVATIONS

STATION/POSITION TIME  TEMP    WIND        PRES
                       AIR SEA DIR/SP/G
                 (UTC) (F)     (DEG/KT/KT) (MB)
THOMAS PT LIGHT  1300   54 58   60/ 11/ 12 1016.9S
BALT KEY BRIDGE  1200   54      40/  6/  7 1015.8R
COVE POINT       1200   51      90/ 12/ 13 1015.5R
LEWISETTA        1200   54 62   90/ 13/ 15 1014.2R
SOLOMONS ISLAND  1200   53 60   60/  7/ 10   N/A
PINEY POINT      1200          100/  9/ 13   N/A

$$





USA.gov is the U.S. government's official web portal to all federal, state and local government web resources and services.